Time,TemperatureF,DewpointF,PressureIn,WindDirection,WindDirectionDegrees,WindSpeedMPH,WindSpeedGustMPH,Humidity,HourlyPrecipIn,Conditions,Clouds,dailyrainin,SolarRadiationWatts/m^2,SoftwareType,DateUTC
2013-06-20 00:02:00,64.9,60.3,30.18,SSE,153,6.0,7.0,85,0.00,,,0.00,0,Wunderground v.1.15,2013-06-20 04:02:00,
2013-06-20 00:04:00,65.0,60.4,30.17,SSE,153,6.0,7.0,85,0.00,,,0.00,0,Wunderground v.1.15,2013-06-20 04:04:00,
2013-06-20 00:06:00,64.9,60.3,30.17,SSE,153,5.0,7.0,85,0.00,,,0.00,0,Wunderground v.1.15,2013-06-20 04:06:00,
2013-06-20 00:12:00,64.8,60.2,30.17,SSE,153,4.0,7.0,85,0.00,,,0.00,0,Wunderground v.1.15,2013-06-20 04:12:00,
2013-06-20 00:14:00,64.8,60.2,30.17,SSE,153,4.0,7.0,85,0.00,,,0.00,0,Wunderground v.1.15,2013-06-20 04:14:00,
2013-06-20 00:20:00,64.8,60.2,30.18,SSE,153,3.0,4.0,85,0.00,,,0.00,0,Wunderground v.1.15,2013-06-20 04:20:00,
2013-06-20 00:22:00,64.8,60.2,30.18,SSE,153,3.0,4.0,85,0.00,,,0.00,0,Wunderground v.1.15,2013-06-20 04:22:00,
2013-06-20 00:28:00,64.8,60.2,30.18,SSE,153,3.0,5.0,85,0.00,,,0.00,0,Wunderground v.1.15,2013-06-20 04:28:00,
2013-06-20 00:36:00,64.7,60.1,30.19,SSE,153,2.0,3.0,85,0.00,,,0.00,0,Wunderground v.1.15,2013-06-20 04:36:00,
2013-06-20 00:42:00,64.7,60.4,30.19,SSE,153,2.0,2.0,86,0.00,,,0.00,0,Wunderground v.1.15,2013-06-20 04:42:00,
2013-06-20 00:48:00,64.5,60.2,30.18,SSE,153,1.0,2.0,86,0.00,,,0.00,0,Wunderground v.1.15,2013-06-20 04:48:00,
2013-06-20 00:54:00,64.5,60.2,30.19,SSE,153,2.0,2.0,86,0.00,,,0.00,0,Wunderground v.1.15,2013-06-20 04:54:00,
2013-06-20 01:00:00,64.3,60.0,30.18,SSE,153,2.0,2.0,86,0.00,,,0.00,0,Wunderground v.1.15,2013-06-20 05:00:00,
2013-06-20 01:06:00,64.3,60.0,30.19,SSE,153,1.0,2.0,86,0.00,,,0.00,0,Wunderground v.1.15,2013-06-20 05:06:00,
2013-06-20 01:12:00,64.1,59.8,30.19,SSE,153,1.0,2.0,86,0.00,,,0.00,0,Wunderground v.1.15,2013-06-20 05:12:00,
2013-06-20 01:18:00,64.0,59.7,30.19,SSE,153,1.0,5.0,86,0.00,,,0.00,0,Wunderground v.1.15,2013-06-20 05:18:00,
2013-06-20 01:24:00,64.1,60.2,30.19,SSE,153,2.0,5.0,87,0.00,,,0.00,0,Wunderground v.1.15,2013-06-20 05:24:00,
2013-06-20 01:30:00,64.1,59.8,30.19,SSE,153,2.0,2.0,86,0.00,,,0.00,0,Wunderground v.1.15,2013-06-20 05:30:00,
2013-06-20 01:36:00,64.2,59.9,30.19,SSE,153,3.0,5.0,86,0.00,,,0.00,0,Wunderground v.1.15,2013-06-20 05:36:00,
2013-06-20 01:42:00,64.2,59.9,30.19,SSE,153,3.0,3.0,86,0.00,,,0.00,0,Wunderground v.1.15,2013-06-20 05:42:00,
2013-06-20 01:48:00,64.3,59.7,30.19,SSE,153,3.0,5.0,85,0.00,,,0.00,0,Wunderground v.1.15,2013-06-20 05:48:00,
2013-06-20 01:56:00,64.3,59.4,30.19,SSE,153,3.0,4.0,84,0.00,,,0.00,0,Wunderground v.1.15,2013-06-20 05:56:00,
2013-06-20 02:02:00,64.4,59.5,30.19,SSE,153,2.0,5.0,84,0.00,,,0.00,0,Wunderground v.1.15,2013-06-20 06:02:00,
2013-06-20 02:08:00,64.4,59.5,30.19,SSE,153,3.0,5.0,84,0.00,,,0.00,0,Wunderground v.1.15,2013-06-20 06:08:00,
2013-06-20 02:14:00,64.4,59.5,30.19,SSE,153,2.0,5.0,84,0.00,,,0.00,0,Wunderground v.1.15,2013-06-20 06:14:00,
2013-06-20 02:20:00,64.3,59.4,30.19,SSE,153,1.0,1.0,84,0.00,,,0.00,0,Wunderground v.1.15,2013-06-20 06:20:00,
2013-06-20 02:26:00,64.1,58.8,30.20,SSE,153,1.0,1.0,83,0.00,,,0.00,0,Wunderground v.1.15,2013-06-20 06:26:00,
2013-06-20 02:32:00,64.1,58.8,30.19,SSE,153,0.0,0.0,83,0.00,,,0.00,0,Wunderground v.1.15,2013-06-20 06:32:00,
2013-06-20 02:38:00,64.0,58.7,30.19,SSE,153,0.0,3.0,83,0.00,,,0.00,0,Wunderground v.1.15,2013-06-20 06:38:00,
2013-06-20 02:44:00,63.8,58.2,30.19,SSE,153,0.0,0.0,82,0.00,,,0.00,0,Wunderground v.1.15,2013-06-20 06:44:00,
2013-06-20 02:50:00,63.6,58.0,30.19,SSE,153,0.0,0.0,82,0.00,,,0.00,0,Wunderground v.1.15,2013-06-20 06:50:00,
2013-06-20 02:56:00,63.5,58.2,30.19,SSE,153,0.0,0.0,83,0.00,,,0.00,0,Wunderground v.1.15,2013-06-20 06:56:00,
2013-06-20 03:02:00,63.4,58.1,30.19,SSE,153,0.0,0.0,83,0.00,,,0.00,0,Wunderground v.1.15,2013-06-20 07:02:00,
2013-06-20 03:08:00,63.3,58.0,30.19,SSE,153,0.0,0.0,83,0.00,,,0.00,0,Wunderground v.1.15,2013-06-20 07:08:00,
2013-06-20 03:14:00,63.1,57.9,30.19,SSE,153,0.0,0.0,83,0.00,,,0.00,0,Wunderground v.1.15,2013-06-20 07:14:00,
2013-06-20 03:20:00,62.9,58.0,30.19,SSE,153,0.0,0.0,84,0.00,,,0.00,0,Wunderground v.1.15,2013-06-20 07:20:00,
2013-06-20 03:26:00,62.7,57.8,30.19,SSE,153,0.0,0.0,84,0.00,,,0.00,0,Wunderground v.1.15,2013-06-20 07:26:00,
2013-06-20 03:32:00,62.6,57.7,30.20,SSE,153,0.0,0.0,84,0.00,,,0.00,0,Wunderground v.1.15,2013-06-20 07:32:00,
2013-06-20 03:38:00,62.5,57.6,30.20,SSE,153,0.0,0.0,84,0.00,,,0.00,0,Wunderground v.1.15,2013-06-20 07:38:00,
2013-06-20 03:46:00,62.3,57.4,30.19,SSE,153,0.0,0.0,84,0.00,,,0.00,0,Wunderground v.1.15,2013-06-20 07:46:00,
2013-06-20 03:52:00,62.2,57.3,30.19,SSE,153,0.0,0.0,84,0.00,,,0.00,0,Wunderground v.1.15,2013-06-20 07:52:00,
2013-06-20 03:58:00,62.1,57.2,30.19,SSE,153,0.0,0.0,84,0.00,,,0.00,0,Wunderground v.1.15,2013-06-20 07:58:00,
2013-06-20 04:06:00,62.0,57.1,30.19,SSE,153,0.0,0.0,84,0.00,,,0.00,0,Wunderground v.1.15,2013-06-20 08:06:00,
2013-06-20 04:12:00,61.9,57.0,30.20,SSE,153,0.0,0.0,84,0.00,,,0.00,0,Wunderground v.1.15,2013-06-20 08:12:00,
2013-06-20 04:18:00,61.8,56.9,30.20,SSE,153,0.0,0.0,84,0.00,,,0.00,0,Wunderground v.1.15,2013-06-20 08:18:00,
2013-06-20 04:26:00,61.8,57.2,30.20,SSE,153,0.0,0.0,85,0.00,,,0.00,0,Wunderground v.1.15,2013-06-20 08:26:00,
2013-06-20 04:32:00,61.9,57.3,30.20,SSE,153,0.0,0.0,85,0.00,,,0.00,0,Wunderground v.1.15,2013-06-20 08:32:00,
2013-06-20 04:38:00,61.8,57.2,30.21,SSE,153,0.0,0.0,85,0.00,,,0.00,0,Wunderground v.1.15,2013-06-20 08:38:00,
2013-06-20 04:46:00,61.8,57.2,30.21,SSE,153,0.0,0.0,85,0.00,,,0.00,0,Wunderground v.1.15,2013-06-20 08:46:00,
2013-06-20 04:52:00,61.8,56.9,30.21,SSE,153,0.0,0.0,84,0.00,,,0.00,0,Wunderground v.1.15,2013-06-20 08:52:00,
2013-06-20 04:58:00,61.8,56.9,30.21,SSE,153,0.0,0.0,84,0.00,,,0.00,0,Wunderground v.1.15,2013-06-20 08:58:00,
2013-06-20 05:06:00,61.8,56.9,30.21,SSE,153,0.0,0.0,84,0.00,,,0.00,0,Wunderground v.1.15,2013-06-20 09:06:00,
2013-06-20 05:12:00,61.8,56.9,30.21,SSE,153,0.0,0.0,84,0.00,,,0.00,0,Wunderground v.1.15,2013-06-20 09:12:00,
2013-06-20 05:18:00,61.8,56.9,30.22,SSE,153,0.0,0.0,84,0.00,,,0.00,0,Wunderground v.1.15,2013-06-20 09:18:00,
2013-06-20 05:26:00,61.8,57.2,30.23,SSE,153,0.0,0.0,85,0.00,,,0.00,0,Wunderground v.1.15,2013-06-20 09:26:00,
2013-06-20 05:32:00,61.8,57.2,30.23,SSE,153,0.0,0.0,85,0.00,,,0.00,0,Wunderground v.1.15,2013-06-20 09:32:00,
2013-06-20 05:38:00,61.8,57.2,30.23,SSE,153,0.0,0.0,85,0.00,,,0.00,5,Wunderground v.1.15,2013-06-20 09:38:00,
2013-06-20 05:44:00,61.8,57.6,30.23,SSE,153,1.0,1.0,86,0.00,,,0.00,9,Wunderground v.1.15,2013-06-20 09:44:00,
2013-06-20 05:50:00,61.8,57.6,30.23,SSE,153,0.0,0.0,86,0.00,,,0.00,12,Wunderground v.1.15,2013-06-20 09:50:00,
2013-06-20 05:56:00,61.8,57.6,30.23,SSE,153,0.0,0.0,86,0.00,,,0.00,18,Wunderground v.1.15,2013-06-20 09:56:00,
2013-06-20 06:02:00,61.8,57.6,30.23,SSE,153,0.0,0.0,86,0.00,,,0.00,25,Wunderground v.1.15,2013-06-20 10:02:00,
2013-06-20 06:08:00,61.8,57.6,30.23,SSE,153,0.0,0.0,86,0.00,,,0.00,33,Wunderground v.1.15,2013-06-20 10:08:00,
2013-06-20 06:14:00,61.9,57.7,30.23,SSE,153,0.0,0.0,86,0.00,,,0.00,42,Wunderground v.1.15,2013-06-20 10:14:00,
2013-06-20 06:20:00,62.0,57.8,30.24,SSE,153,0.0,0.0,86,0.00,,,0.00,54,Wunderground v.1.15,2013-06-20 10:20:00,
2013-06-20 06:26:00,62.1,57.9,30.24,SSE,153,0.0,0.0,86,0.00,,,0.00,65,Wunderground v.1.15,2013-06-20 10:26:00,
2013-06-20 06:32:00,62.3,58.1,30.24,SSE,153,0.0,0.0,86,0.00,,,0.00,84,Wunderground v.1.15,2013-06-20 10:32:00,
2013-06-20 06:38:00,62.7,58.8,30.24,SSE,153,0.0,1.0,87,0.00,,,0.00,102,Wunderground v.1.15,2013-06-20 10:38:00,
2013-06-20 06:46:00,63.4,59.1,30.24,SSE,153,1.0,2.0,86,0.00,,,0.00,128,Wunderground v.1.15,2013-06-20 10:46:00,
2013-06-20 06:52:00,64.2,59.6,30.25,SSE,153,1.0,4.0,85,0.00,,,0.00,148,Wunderground v.1.15,2013-06-20 10:52:00,
2013-06-20 06:58:00,64.8,59.5,30.24,SSE,153,2.0,4.0,83,0.00,,,0.00,171,Wunderground v.1.15,2013-06-20 10:58:00,
2013-06-20 07:06:00,65.4,59.4,30.25,SSE,153,3.0,4.0,81,0.00,,,0.00,195,Wunderground v.1.15,2013-06-20 11:06:00,
2013-06-20 07:12:00,65.8,59.1,30.25,SSE,153,3.0,3.0,79,0.00,,,0.00,213,Wunderground v.1.15,2013-06-20 11:12:00,
2013-06-20 07:18:00,66.1,59.4,30.25,SSE,153,3.0,3.0,79,0.00,,,0.00,230,Wunderground v.1.15,2013-06-20 11:18:00,
2013-06-20 07:24:00,66.5,59.8,30.25,SSE,153,3.0,3.0,79,0.00,,,0.00,248,Wunderground v.1.15,2013-06-20 11:24:00,
2013-06-20 07:30:00,66.7,59.6,30.25,SSE,153,3.0,4.0,78,0.00,,,0.00,267,Wunderground v.1.15,2013-06-20 11:30:00,
2013-06-20 07:36:00,66.9,59.5,30.25,SSE,153,3.0,4.0,77,0.00,,,0.00,285,Wunderground v.1.15,2013-06-20 11:36:00,
2013-06-20 07:42:00,67.0,59.5,30.25,SSE,153,4.0,4.0,77,0.00,,,0.00,304,Wunderground v.1.15,2013-06-20 11:42:00,
2013-06-20 07:48:00,67.2,59.7,30.25,SSE,153,4.0,4.0,77,0.00,,,0.00,323,Wunderground v.1.15,2013-06-20 11:48:00,
2013-06-20 07:56:00,66.7,58.9,30.25,SSE,153,4.0,4.0,76,0.00,,,0.00,350,Wunderground v.1.15,2013-06-20 11:56:00,
2013-06-20 08:02:00,66.9,59.5,30.26,SSE,153,4.0,4.0,77,0.00,,,0.00,369,Wunderground v.1.15,2013-06-20 12:02:00,
2013-06-20 08:08:00,67.0,59.9,30.26,SSE,153,3.0,4.0,78,0.00,,,0.00,388,Wunderground v.1.15,2013-06-20 12:08:00,
2013-06-20 08:16:00,67.0,60.3,30.26,SSE,153,3.0,4.0,79,0.00,,,0.00,411,Wunderground v.1.15,2013-06-20 12:16:00,
2013-06-20 08:22:00,67.3,60.2,30.26,SSE,153,3.0,3.0,78,0.00,,,0.00,429,Wunderground v.1.15,2013-06-20 12:22:00,
2013-06-20 08:28:00,67.2,60.1,30.26,SSE,153,3.0,4.0,78,0.00,,,0.00,448,Wunderground v.1.15,2013-06-20 12:28:00,
2013-06-20 08:34:00,67.4,60.7,30.26,SSE,153,3.0,3.0,79,0.00,,,0.00,466,Wunderground v.1.15,2013-06-20 12:34:00,
2013-06-20 08:40:00,67.9,60.8,30.27,SSE,153,2.0,2.0,78,0.00,,,0.00,482,Wunderground v.1.15,2013-06-20 12:40:00,
2013-06-20 08:46:00,68.6,60.7,30.27,SSE,153,2.0,2.0,76,0.00,,,0.00,503,Wunderground v.1.15,2013-06-20 12:46:00,
2013-06-20 08:52:00,68.7,60.8,30.27,SSE,153,2.0,2.0,76,0.00,,,0.00,519,Wunderground v.1.15,2013-06-20 12:52:00,
2013-06-20 08:58:00,68.5,61.0,30.27,SSE,153,2.0,2.0,77,0.00,,,0.00,536,Wunderground v.1.15,2013-06-20 12:58:00,
2013-06-20 09:04:00,68.8,60.9,30.28,SSE,153,2.0,3.0,76,0.00,,,0.00,552,Wunderground v.1.15,2013-06-20 13:04:00,
2013-06-20 09:10:00,69.0,61.5,30.28,SSE,153,2.0,3.0,77,0.00,,,0.00,573,Wunderground v.1.15,2013-06-20 13:10:00,
2013-06-20 09:16:00,69.2,61.3,30.28,SSE,153,2.0,3.0,76,0.00,,,0.00,591,Wunderground v.1.15,2013-06-20 13:16:00,
2013-06-20 09:22:00,68.9,61.0,30.28,SSE,153,2.0,3.0,76,0.00,,,0.00,605,Wunderground v.1.15,2013-06-20 13:22:00,
2013-06-20 09:28:00,69.0,61.1,30.28,SSE,153,2.0,3.0,76,0.00,,,0.00,622,Wunderground v.1.15,2013-06-20 13:28:00,
2013-06-20 09:36:00,68.8,61.3,30.28,SSE,153,2.0,3.0,77,0.00,,,0.00,643,Wunderground v.1.15,2013-06-20 13:36:00,
2013-06-20 09:42:00,69.3,61.4,30.28,SSE,153,2.0,2.0,76,0.00,,,0.00,659,Wunderground v.1.15,2013-06-20 13:42:00,
2013-06-20 09:48:00,69.6,61.3,30.28,SSE,153,2.0,3.0,75,0.00,,,0.00,673,Wunderground v.1.15,2013-06-20 13:48:00,
2013-06-20 09:54:00,69.6,61.3,30.29,SSE,153,2.0,3.0,75,0.00,,,0.00,689,Wunderground v.1.15,2013-06-20 13:54:00,
2013-06-20 10:00:00,69.9,61.2,30.29,SSE,153,2.0,2.0,74,0.00,,,0.00,705,Wunderground v.1.15,2013-06-20 14:00:00,
2013-06-20 10:06:00,69.8,61.5,30.29,SSE,153,2.0,2.0,75,0.00,,,0.00,719,Wunderground v.1.15,2013-06-20 14:06:00,
2013-06-20 10:12:00,70.3,61.6,30.29,SSE,153,2.0,3.0,74,0.00,,,0.00,735,Wunderground v.1.15,2013-06-20 14:12:00,
2013-06-20 10:18:00,70.1,61.4,30.29,SSE,153,2.0,4.0,74,0.00,,,0.00,747,Wunderground v.1.15,2013-06-20 14:18:00,
2013-06-20 10:24:00,69.9,61.2,30.29,SSE,153,3.0,3.0,74,0.00,,,0.00,759,Wunderground v.1.15,2013-06-20 14:24:00,
2013-06-20 10:30:00,69.7,61.4,30.29,SSE,153,3.0,3.0,75,0.00,,,0.00,773,Wunderground v.1.15,2013-06-20 14:30:00,
2013-06-20 10:36:00,70.1,62.2,30.29,SSE,153,3.0,3.0,76,0.00,,,0.00,788,Wunderground v.1.15,2013-06-20 14:36:00,
2013-06-20 10:42:00,69.9,61.6,30.29,SSE,153,3.0,4.0,75,0.00,,,0.00,798,Wunderground v.1.15,2013-06-20 14:42:00,
2013-06-20 10:48:00,69.9,62.0,30.30,SSE,153,3.0,4.0,76,0.00,,,0.00,810,Wunderground v.1.15,2013-06-20 14:48:00,
2013-06-20 10:54:00,70.4,62.5,30.29,SSE,153,3.0,3.0,76,0.00,,,0.00,823,Wunderground v.1.15,2013-06-20 14:54:00,
2013-06-20 11:00:00,70.2,61.9,30.29,SSE,153,3.0,3.0,75,0.00,,,0.00,833,Wunderground v.1.15,2013-06-20 15:00:00,
2013-06-20 11:06:00,69.9,61.2,30.30,SSE,153,2.0,3.0,74,0.00,,,0.00,844,Wunderground v.1.15,2013-06-20 15:06:00,
2013-06-20 11:12:00,70.2,61.5,30.30,SSE,153,2.0,3.0,74,0.00,,,0.00,853,Wunderground v.1.15,2013-06-20 15:12:00,
2013-06-20 11:18:00,70.6,61.9,30.29,SSE,153,2.0,4.0,74,0.00,,,0.00,863,Wunderground v.1.15,2013-06-20 15:18:00,
2013-06-20 11:26:00,71.0,62.7,30.30,SSE,153,3.0,4.0,75,0.00,,,0.00,879,Wunderground v.1.15,2013-06-20 15:26:00,
2013-06-20 11:32:00,70.8,62.1,30.30,SSE,153,3.0,3.0,74,0.00,,,0.00,884,Wunderground v.1.15,2013-06-20 15:32:00,
2013-06-20 11:38:00,70.5,62.2,30.30,SSE,153,3.0,3.0,75,0.00,,,0.00,895,Wunderground v.1.15,2013-06-20 15:38:00,
2013-06-20 11:46:00,70.6,61.9,30.30,SSE,153,3.0,3.0,74,0.00,,,0.00,905,Wunderground v.1.15,2013-06-20 15:46:00,
2013-06-20 11:52:00,70.6,61.9,30.30,SSE,153,3.0,3.0,74,0.00,,,0.00,909,Wunderground v.1.15,2013-06-20 15:52:00,
2013-06-20 11:58:00,70.6,62.3,30.31,SSE,153,3.0,4.0,75,0.00,,,0.00,916,Wunderground v.1.15,2013-06-20 15:58:00,
2013-06-20 12:04:00,70.4,61.7,30.30,SSE,153,3.0,4.0,74,0.00,,,0.00,925,Wunderground v.1.15,2013-06-20 16:04:00,
2013-06-20 12:10:00,70.1,61.0,30.31,SSE,153,4.0,4.0,73,0.00,,,0.00,932,Wunderground v.1.15,2013-06-20 16:10:00,
2013-06-20 12:16:00,70.1,62.2,30.31,SSE,153,4.0,4.0,76,0.00,,,0.00,933,Wunderground v.1.15,2013-06-20 16:16:00,
2013-06-20 12:22:00,70.2,61.9,30.30,SSE,153,4.0,5.0,75,0.00,,,0.00,937,Wunderground v.1.15,2013-06-20 16:22:00,
2013-06-20 12:28:00,70.4,61.7,30.30,SSE,153,4.0,5.0,74,0.00,,,0.00,940,Wunderground v.1.15,2013-06-20 16:28:00,
2013-06-20 12:34:00,70.8,62.5,30.30,SSE,153,3.0,4.0,75,0.00,,,0.00,944,Wunderground v.1.15,2013-06-20 16:34:00,
2013-06-20 12:40:00,70.4,62.1,30.30,SSE,153,4.0,5.0,75,0.00,,,0.00,946,Wunderground v.1.15,2013-06-20 16:40:00,
2013-06-20 12:46:00,70.3,61.6,30.30,SSE,153,4.0,5.0,74,0.00,,,0.00,947,Wunderground v.1.15,2013-06-20 16:46:00,
2013-06-20 12:52:00,69.9,61.6,30.30,SSE,153,5.0,5.0,75,0.00,,,0.00,949,Wunderground v.1.15,2013-06-20 16:52:00,
2013-06-20 12:58:00,69.9,61.2,30.30,SSE,153,5.0,6.0,74,0.00,,,0.00,949,Wunderground v.1.15,2013-06-20 16:58:00,
2013-06-20 13:04:00,70.1,61.8,30.30,SSE,153,5.0,6.0,75,0.00,,,0.00,951,Wunderground v.1.15,2013-06-20 17:04:00,
2013-06-20 13:10:00,70.3,61.2,30.30,SSE,153,6.0,6.0,73,0.00,,,0.00,951,Wunderground v.1.15,2013-06-20 17:10:00,
2013-06-20 13:16:00,70.1,61.4,30.30,SSE,153,6.0,6.0,74,0.00,,,0.00,947,Wunderground v.1.15,2013-06-20 17:16:00,
2013-06-20 13:22:00,70.3,60.8,30.30,SSE,153,6.0,8.0,72,0.00,,,0.00,951,Wunderground v.1.15,2013-06-20 17:22:00,
2013-06-20 13:28:00,70.3,60.8,30.30,SSE,153,6.0,8.0,72,0.00,,,0.00,947,Wunderground v.1.15,2013-06-20 17:28:00,
2013-06-20 13:36:00,70.9,61.4,30.30,SSE,153,7.0,7.0,72,0.00,,,0.00,944,Wunderground v.1.15,2013-06-20 17:36:00,
2013-06-20 13:42:00,70.8,60.1,30.29,SSE,153,7.0,8.0,69,0.00,,,0.00,944,Wunderground v.1.15,2013-06-20 17:42:00,
2013-06-20 13:48:00,71.0,60.3,30.30,SSE,153,7.0,8.0,69,0.00,,,0.00,940,Wunderground v.1.15,2013-06-20 17:48:00,
2013-06-20 13:56:00,70.7,60.4,30.30,SSE,153,7.0,7.0,70,0.00,,,0.00,935,Wunderground v.1.15,2013-06-20 17:56:00,
2013-06-20 14:02:00,70.4,59.3,30.29,SSE,153,6.0,6.0,68,0.00,,,0.00,932,Wunderground v.1.15,2013-06-20 18:02:00,
2013-06-20 14:08:00,70.3,60.1,30.29,SSE,153,7.0,8.0,70,0.00,,,0.00,926,Wunderground v.1.15,2013-06-20 18:08:00,
2013-06-20 14:16:00,70.9,60.6,30.28,SSE,153,7.0,9.0,70,0.00,,,0.00,919,Wunderground v.1.15,2013-06-20 18:16:00,
2013-06-20 14:22:00,70.8,60.1,30.28,SSE,153,7.0,7.0,69,0.00,,,0.00,914,Wunderground v.1.15,2013-06-20 18:22:00,
2013-06-20 14:28:00,70.6,59.9,30.29,SSE,153,7.0,8.0,69,0.00,,,0.00,909,Wunderground v.1.15,2013-06-20 18:28:00,
2013-06-20 14:36:00,70.7,60.0,30.29,SSE,153,8.0,9.0,69,0.00,,,0.00,900,Wunderground v.1.15,2013-06-20 18:36:00,
2013-06-20 14:42:00,70.7,60.0,30.29,SSE,153,8.0,8.0,69,0.00,,,0.00,889,Wunderground v.1.15,2013-06-20 18:42:00,
2013-06-20 14:48:00,70.6,60.3,30.29,SSE,153,8.0,9.0,70,0.00,,,0.00,881,Wunderground v.1.15,2013-06-20 18:48:00,
2013-06-20 14:56:00,70.6,59.9,30.29,SSE,153,8.0,8.0,69,0.00,,,0.00,867,Wunderground v.1.15,2013-06-20 18:56:00,
2013-06-20 15:02:00,70.7,60.4,30.29,SSE,153,8.0,8.0,70,0.00,,,0.00,860,Wunderground v.1.15,2013-06-20 19:02:00,
2013-06-20 15:08:00,70.5,59.4,30.28,SSE,153,8.0,8.0,68,0.00,,,0.00,851,Wunderground v.1.15,2013-06-20 19:08:00,
2013-06-20 15:16:00,70.3,58.4,30.28,SSE,153,8.0,9.0,66,0.00,,,0.00,835,Wunderground v.1.15,2013-06-20 19:16:00,
2013-06-20 15:22:00,70.4,58.1,30.28,SSE,153,7.0,8.0,65,0.00,,,0.00,826,Wunderground v.1.15,2013-06-20 19:22:00,
2013-06-20 15:28:00,70.2,58.3,30.28,SSE,153,7.0,8.0,66,0.00,,,0.00,814,Wunderground v.1.15,2013-06-20 19:28:00,
2013-06-20 15:36:00,70.5,58.6,30.28,SSE,153,7.0,8.0,66,0.00,,,0.00,798,Wunderground v.1.15,2013-06-20 19:36:00,
2013-06-20 15:42:00,70.6,58.3,30.28,SSE,153,7.0,7.0,65,0.00,,,0.00,788,Wunderground v.1.15,2013-06-20 19:42:00,
2013-06-20 15:48:00,70.4,58.1,30.28,SSE,153,7.0,7.0,65,0.00,,,0.00,772,Wunderground v.1.15,2013-06-20 19:48:00,
2013-06-20 15:56:00,70.4,58.5,30.28,SSE,153,7.0,7.0,66,0.00,,,0.00,754,Wunderground v.1.15,2013-06-20 19:56:00,
2013-06-20 16:02:00,70.7,57.9,30.28,SSE,153,7.0,8.0,64,0.00,,,0.00,742,Wunderground v.1.15,2013-06-20 20:02:00,
2013-06-20 16:08:00,70.7,57.9,30.28,SSE,153,6.0,8.0,64,0.00,,,0.00,729,Wunderground v.1.15,2013-06-20 20:08:00,
2013-06-20 16:14:00,70.5,57.7,30.28,SSE,153,7.0,8.0,64,0.00,,,0.00,714,Wunderground v.1.15,2013-06-20 20:14:00,
2013-06-20 16:20:00,70.5,58.2,30.28,SSE,153,7.0,8.0,65,0.00,,,0.00,700,Wunderground v.1.15,2013-06-20 20:20:00,
2013-06-20 16:26:00,70.4,57.6,30.28,SSE,153,7.0,8.0,64,0.00,,,0.00,684,Wunderground v.1.15,2013-06-20 20:26:00,
2013-06-20 16:32:00,70.4,58.1,30.28,SSE,153,7.0,7.0,65,0.00,,,0.00,668,Wunderground v.1.15,2013-06-20 20:32:00,
2013-06-20 16:38:00,70.4,57.6,30.28,SSE,153,7.0,8.0,64,0.00,,,0.00,650,Wunderground v.1.15,2013-06-20 20:38:00,
2013-06-20 16:44:00,70.3,57.1,30.28,SSE,153,6.0,8.0,63,0.00,,,0.00,635,Wunderground v.1.15,2013-06-20 20:44:00,
2013-06-20 16:50:00,70.1,57.8,30.28,SSE,153,6.0,6.0,65,0.00,,,0.00,619,Wunderground v.1.15,2013-06-20 20:50:00,
2013-06-20 16:56:00,70.2,58.3,30.28,SSE,153,6.0,6.0,66,0.00,,,0.00,603,Wunderground v.1.15,2013-06-20 20:56:00,
2013-06-20 17:02:00,70.1,58.6,30.28,SSE,153,6.0,6.0,67,0.00,,,0.00,585,Wunderground v.1.15,2013-06-20 21:02:00,
2013-06-20 17:08:00,70.2,58.3,30.28,SSE,153,6.0,6.0,66,0.00,,,0.00,570,Wunderground v.1.15,2013-06-20 21:08:00,
2013-06-20 17:14:00,70.1,58.2,30.28,SSE,153,6.0,6.0,66,0.00,,,0.00,548,Wunderground v.1.15,2013-06-20 21:14:00,
2013-06-20 17:20:00,70.2,58.7,30.28,SSE,153,6.0,6.0,67,0.00,,,0.00,533,Wunderground v.1.15,2013-06-20 21:20:00,
2013-06-20 17:26:00,70.0,58.5,30.28,SSE,153,6.0,7.0,67,0.00,,,0.00,515,Wunderground v.1.15,2013-06-20 21:26:00,
2013-06-20 17:32:00,69.9,58.9,30.28,SSE,153,6.0,7.0,68,0.00,,,0.00,497,Wunderground v.1.15,2013-06-20 21:32:00,
2013-06-20 17:38:00,69.8,57.9,30.28,SSE,153,6.0,7.0,66,0.00,,,0.00,478,Wunderground v.1.15,2013-06-20 21:38:00,
2013-06-20 17:44:00,69.9,58.9,30.28,SSE,153,6.0,7.0,68,0.00,,,0.00,462,Wunderground v.1.15,2013-06-20 21:44:00,
2013-06-20 17:50:00,70.0,59.0,30.28,SSE,153,6.0,6.0,68,0.00,,,0.00,443,Wunderground v.1.15,2013-06-20 21:50:00,
2013-06-20 17:56:00,69.9,58.4,30.28,SSE,153,6.0,7.0,67,0.00,,,0.00,424,Wunderground v.1.15,2013-06-20 21:56:00,
2013-06-20 18:02:00,69.8,58.3,30.28,SSE,153,6.0,7.0,67,0.00,,,0.00,406,Wunderground v.1.15,2013-06-20 22:02:00,
2013-06-20 18:08:00,69.7,58.7,30.28,SSE,153,6.0,7.0,68,0.00,,,0.00,387,Wunderground v.1.15,2013-06-20 22:08:00,
2013-06-20 18:14:00,69.7,59.1,30.28,SSE,153,7.0,8.0,69,0.00,,,0.00,369,Wunderground v.1.15,2013-06-20 22:14:00,
2013-06-20 18:20:00,69.6,59.4,30.28,SSE,153,7.0,7.0,70,0.00,,,0.00,348,Wunderground v.1.15,2013-06-20 22:20:00,
2013-06-20 18:26:00,69.5,58.9,30.28,SSE,153,7.0,7.0,69,0.00,,,0.00,330,Wunderground v.1.15,2013-06-20 22:26:00,
2013-06-20 18:32:00,69.4,59.2,30.28,SSE,153,7.0,8.0,70,0.00,,,0.00,311,Wunderground v.1.15,2013-06-20 22:32:00,
2013-06-20 18:38:00,69.3,59.1,30.28,SSE,153,7.0,8.0,70,0.00,,,0.00,294,Wunderground v.1.15,2013-06-20 22:38:00,
2013-06-20 18:44:00,69.2,58.6,30.28,SSE,153,7.0,7.0,69,0.00,,,0.00,272,Wunderground v.1.15,2013-06-20 22:44:00,
2013-06-20 18:50:00,69.2,59.0,30.28,SSE,153,7.0,7.0,70,0.00,,,0.00,255,Wunderground v.1.15,2013-06-20 22:50:00,
2013-06-20 18:56:00,69.1,58.9,30.28,SSE,153,7.0,8.0,70,0.00,,,0.00,237,Wunderground v.1.15,2013-06-20 22:56:00,
2013-06-20 19:02:00,69.0,58.4,30.28,SSE,153,8.0,8.0,69,0.00,,,0.00,214,Wunderground v.1.15,2013-06-20 23:02:00,
2013-06-20 19:08:00,68.9,59.1,30.28,SSE,153,8.0,9.0,71,0.00,,,0.00,197,Wunderground v.1.15,2013-06-20 23:08:00,
2013-06-20 19:16:00,68.7,59.3,30.28,SSE,153,8.0,9.0,72,0.00,,,0.00,163,Wunderground v.1.15,2013-06-20 23:16:00,
2013-06-20 19:22:00,68.6,59.2,30.28,SSE,153,8.0,11.0,72,0.00,,,0.00,142,Wunderground v.1.15,2013-06-20 23:22:00,
2013-06-20 19:28:00,68.5,58.3,30.28,SSE,153,9.0,11.0,70,0.00,,,0.00,107,Wunderground v.1.15,2013-06-20 23:28:00,
2013-06-20 19:36:00,68.5,58.3,30.28,SSE,153,9.0,10.0,70,0.00,,,0.00,95,Wunderground v.1.15,2013-06-20 23:36:00,
2013-06-20 19:42:00,68.4,58.6,30.28,SSE,153,9.0,10.0,71,0.00,,,0.00,77,Wunderground v.1.15,2013-06-20 23:42:00,
2013-06-20 19:48:00,68.3,58.1,30.28,SSE,153,9.0,12.0,70,0.00,,,0.00,63,Wunderground v.1.15,2013-06-20 23:48:00,
2013-06-20 19:54:00,68.3,58.5,30.28,SSE,153,10.0,10.0,71,0.00,,,0.00,49,Wunderground v.1.15,2013-06-20 23:54:00,
2013-06-20 20:00:00,68.2,58.0,30.28,SSE,153,10.0,11.0,70,0.00,,,0.00,33,Wunderground v.1.15,2013-06-21 00:00:00,
2013-06-20 20:06:00,68.2,58.4,30.28,SSE,153,9.0,11.0,71,0.00,,,0.00,18,Wunderground v.1.15,2013-06-21 00:06:00,
2013-06-20 20:12:00,68.1,59.1,30.29,SSE,153,9.0,9.0,73,0.00,,,0.00,11,Wunderground v.1.15,2013-06-21 00:12:00,
2013-06-20 20:18:00,68.0,59.0,30.28,SSE,153,9.0,10.0,73,0.00,,,0.00,7,Wunderground v.1.15,2013-06-21 00:18:00,
2013-06-20 20:26:00,67.9,58.9,30.28,SSE,153,10.0,10.0,73,0.00,,,0.00,0,Wunderground v.1.15,2013-06-21 00:26:00,
2013-06-20 20:32:00,67.8,58.8,30.28,SSE,153,10.0,12.0,73,0.00,,,0.00,0,Wunderground v.1.15,2013-06-21 00:32:00,
2013-06-20 20:38:00,67.8,59.2,30.28,SSE,153,9.0,12.0,74,0.00,,,0.00,0,Wunderground v.1.15,2013-06-21 00:38:00,
2013-06-20 20:44:00,67.6,58.6,30.28,SSE,153,10.0,10.0,73,0.00,,,0.00,0,Wunderground v.1.15,2013-06-21 00:44:00,
2013-06-20 20:50:00,67.7,59.1,30.28,SSE,155,10.0,10.0,74,0.00,,,0.00,0,Wunderground v.1.15,2013-06-21 00:50:00,
2013-06-20 20:56:00,67.6,58.6,30.28,SSE,158,10.0,10.0,73,0.00,,,0.00,0,Wunderground v.1.15,2013-06-21 00:56:00,
2013-06-20 21:02:00,67.6,59.0,30.28,SSE,158,10.0,10.0,74,0.00,,,0.00,0,Wunderground v.1.15,2013-06-21 01:02:00,
2013-06-20 21:08:00,67.6,59.0,30.28,SSE,161,10.0,12.0,74,0.00,,,0.00,0,Wunderground v.1.15,2013-06-21 01:08:00,
2013-06-20 21:16:00,67.6,59.0,30.28,SSE,161,10.0,10.0,74,0.00,,,0.00,0,Wunderground v.1.15,2013-06-21 01:16:00,
2013-06-20 21:22:00,67.5,58.2,30.28,SSE,161,11.0,14.0,72,0.00,,,0.00,0,Wunderground v.1.15,2013-06-21 01:22:00,
2013-06-20 21:28:00,67.5,58.2,30.28,SSE,162,11.0,14.0,72,0.00,,,0.00,0,Wunderground v.1.15,2013-06-21 01:28:00,
2013-06-20 21:36:00,67.6,59.0,30.28,SSE,161,11.0,13.0,74,0.00,,,0.00,0,Wunderground v.1.15,2013-06-21 01:36:00,
2013-06-20 21:42:00,67.6,59.0,30.28,SSE,160,12.0,12.0,74,0.00,,,0.00,0,Wunderground v.1.15,2013-06-21 01:42:00,
2013-06-20 21:48:00,67.5,58.2,30.28,SSE,165,12.0,14.0,72,0.00,,,0.00,0,Wunderground v.1.15,2013-06-21 01:48:00,
2013-06-20 21:56:00,67.5,57.4,30.28,SSE,161,12.0,13.0,70,0.00,,,0.00,0,Wunderground v.1.15,2013-06-21 01:56:00,
2013-06-20 22:02:00,67.6,57.5,30.28,SSE,155,12.0,13.0,70,0.00,,,0.00,0,Wunderground v.1.15,2013-06-21 02:02:00,
2013-06-20 22:08:00,67.6,57.5,30.28,SSE,163,12.0,15.0,70,0.00,,,0.00,0,Wunderground v.1.15,2013-06-21 02:08:00,
2013-06-20 22:14:00,67.6,58.2,30.28,SSE,165,12.0,13.0,72,0.00,,,0.00,0,Wunderground v.1.15,2013-06-21 02:14:00,
2013-06-20 22:20:00,67.5,57.4,30.28,SSE,159,11.0,11.0,70,0.00,,,0.00,0,Wunderground v.1.15,2013-06-21 02:20:00,
2013-06-20 22:26:00,67.5,57.4,30.28,SSE,159,10.0,11.0,70,0.00,,,0.00,0,Wunderground v.1.15,2013-06-21 02:26:00,
2013-06-20 22:32:00,67.5,58.2,30.28,SSE,159,10.0,11.0,72,0.00,,,0.00,0,Wunderground v.1.15,2013-06-21 02:32:00,
2013-06-20 22:38:00,67.4,58.4,30.28,SSE,157,10.0,11.0,73,0.00,,,0.00,0,Wunderground v.1.15,2013-06-21 02:38:00,
2013-06-20 22:46:00,67.2,57.9,30.28,SSE,165,8.0,12.0,72,0.00,,,0.00,0,Wunderground v.1.15,2013-06-21 02:46:00,
2013-06-20 22:52:00,67.4,59.2,30.28,SSE,157,9.0,12.0,75,0.00,,,0.00,0,Wunderground v.1.15,2013-06-21 02:52:00,
2013-06-20 22:58:00,67.2,58.6,30.28,SSE,157,9.0,12.0,74,0.00,,,0.00,0,Wunderground v.1.15,2013-06-21 02:58:00,
2013-06-20 23:04:00,67.0,58.1,30.28,SSE,161,9.0,12.0,73,0.00,,,0.00,0,Wunderground v.1.15,2013-06-21 03:04:00,
2013-06-20 23:10:00,67.2,59.0,30.28,SSE,165,9.0,13.0,75,0.00,,,0.00,0,Wunderground v.1.15,2013-06-21 03:10:00,
2013-06-20 23:16:00,67.0,58.4,30.28,SSE,152,9.0,13.0,74,0.00,,,0.00,0,Wunderground v.1.15,2013-06-21 03:16:00,
2013-06-20 23:22:00,67.0,58.4,30.27,SSE,165,10.0,12.0,74,0.00,,,0.00,0,Wunderground v.1.15,2013-06-21 03:22:00,
2013-06-20 23:28:00,67.1,58.5,30.27,SSE,160,12.0,16.0,74,0.00,,,0.00,0,Wunderground v.1.15,2013-06-21 03:28:00,
2013-06-20 23:36:00,67.1,58.9,30.28,SSE,158,11.0,13.0,75,0.00,,,0.00,0,Wunderground v.1.15,2013-06-21 03:36:00,
2013-06-20 23:42:00,67.0,58.8,30.28,SSE,157,11.0,11.0,75,0.00,,,0.00,0,Wunderground v.1.15,2013-06-21 03:42:00,
2013-06-20 23:48:00,66.8,58.2,30.27,SSE,159,10.0,11.0,74,0.00,,,0.00,0,Wunderground v.1.15,2013-06-21 03:48:00,
2013-06-20 23:54:00,66.8,58.2,30.27,SSE,157,9.0,10.0,74,0.00,,,0.00,0,Wunderground v.1.15,2013-06-21 03:54:00,